User: anonymous   Login
Location: Unspecified
(0.0000°N, 0.0000°E)
Time: 20:11:28
(UTC+00:00)
Language:

ONEWEB-0543 - Orbit

View from above orbital plane
View from above orbital plane
View from above satellite
View from above satellite

Ground track
Ground track

The orbit is defined by the following mean orbital elements,

1 55143U          26145.47680934 +.00000000 +00000-0 +50115-2 0 00004
2 55143  87.9159 339.9911 0001663  81.3948 278.7372 13.18677984    03
Epoch (UTC): 25 May 2026 11:26:36
Eccentricity: 0.0001663
inclination: 87.9159°
perigee height: 1189 km
apogee height: 1191 km
right ascension of ascending node: 339.9911°
argument of perigee: 81.3948°
revolutions per day: 13.18677984
mean anomaly at epoch: 278.7372°

The dashed part of the orbit path shows where the satellite is in the earth's shadow,  

DLR